AO-07 1 07530U 74089B 26062.66303753 -.00000044 00000-0 15322-4 0 9998 2 07530 101.9969 74.7880 0012027 333.8373 145.2081 12.53696252347295 UO-11 1 14781U 84021B 26062.49736568 .00002024 00000-0 21301-3 0 9998 2 14781 97.7937 29.3491 0007859 162.1253 198.0243 14.90478819241388 AO-27 1 22825U 93061C 26062.69345401 .00000155 00000-0 76005-4 0 9999 2 22825 98.6994 130.0988 0009211 55.1566 305.0482 14.30910753691917 FO-29 1 24278U 96046B 26062.51035968 -.00000016 00000-0 19973-4 0 9992 2 24278 98.5391 285.7656 0350086 10.7932 350.0477 13.53268418458872 GO-32 1 25397U 98043D 26062.55859358 .00000117 00000-0 70908-4 0 9991 2 25397 99.0020 52.6812 0001875 129.2562 230.8782 14.24404107436291 ISS 1 25544U 98067A 26062.76956237 .00010027 00000-0 19358-3 0 9990 2 25544 51.6317 101.6250 0008204 153.6152 206.5256 15.48425902555413 NO-44 1 26931U 01043C 26062.69115843 .00000250 00000-0 12407-3 0 9996 2 26931 67.0509 157.1258 0007029 265.3965 94.6334 14.31908513275348 SO-50 1 27607U 02058C 26062.54737567 .00002181 00000-0 27456-3 0 9996 2 27607 64.5510 95.7694 0075104 281.7708 77.4980 14.82753743248794 CO-55 1 27844U 03031E 26062.59243050 .00000460 00000-0 21825-3 0 9997 2 27844 98.6778 72.4669 0010485 128.3914 231.8208 14.24260210176642 CO-57 1 27848U 03031J 26062.45798097 .00000377 00000-0 18495-3 0 9998 2 27848 98.6808 72.1317 0010118 145.3523 214.8316 14.23556086176330 RS-22 1 27939U 03042A 26062.89407872 .00002089 00000-0 33151-3 0 9995 2 27939 98.3424 244.2942 0010264 240.4052 256.1827 14.73234879200044 CO-58 1 28895U 05043F 26062.39543610 .00002713 00000-0 43696-3 0 9995 2 28895 98.2815 215.9011 0014379 177.1560 182.9731 14.72285021 86183 CO-65 1 32785U 08021C 26062.87560311 .00009717 00000-0 63010-3 0 9990 2 32785 97.8198 42.2431 0010278 36.7740 323.4191 15.08270933969319 CO-66 1 32791U 08021J 26062.50727596 .00024010 00000-0 86001-3 0 9995 2 32791 97.7506 55.6816 0002564 18.3674 341.7657 15.28751446971121 RS-30 1 32953U 08025A 26062.91339966 .00000124 00000-0 81901-3 0 9998 2 32953 82.4985 60.9174 0019319 177.8565 182.2601 12.43176325806614 SRMSAT 1 37841U 11058D 26062.20286726 .00000470 00000-0 11156-3 0 9995 2 37841 19.9732 340.9649 0011887 118.1185 34.7703 14.11544671742822 ZACUBE-1 1 39417U 13066B 26062.86089902 .00006842 00000-0 54155-3 0 9991 2 39417 97.8183 24.6561 0041678 239.6691 120.0407 15.00250727664939 Delfi-N3xt 1 39428U 13066N 26062.71800203 .00010249 00000-0 92354-3 0 9991 2 39428 97.8352 343.2470 0075918 196.1925 163.6868 14.93556384658878 GOMX-1 1 39430U 13066Q 26062.83113796 .00002255 00000-0 34457-3 0 9999 2 39430 97.6570 269.9016 0130614 56.1579 305.1979 14.69069925654444 LO-74 1 39440U 13066AA 26062.86655321 .00008858 00000-0 83132-3 0 9997 2 39440 97.8812 11.5305 0059389 18.3107 342.0232 14.92865511661276 AO-73 1 39444U 13066AE 26062.33666782 .00010715 00000-0 69419-3 0 9993 2 39444 97.8168 31.7675 0036610 201.2550 158.7158 15.07759862663702 DTUSAT-2 1 40030U 14033W 26062.51068704 .00010845 00000-0 61098-3 0 9990 2 40030 98.0839 53.6720 0006486 227.3263 132.7421 15.13390777636691 EO-80 1 40032U 14033Y 26062.77965833 .00012574 00000-0 70463-3 0 9996 2 40032 98.0725 53.2424 0007915 160.4530 199.7005 15.13530763636711 LILACSAT-2 1 40908U 15049K 26062.82598752 .00022425 00000-0 43358-3 0 9993 2 40908 97.4814 95.8472 0005588 274.8926 85.1686 15.47764147579433 Horyu-4 1 41340U 16012D 26062.46124036 .00094219 00000-0 10417-2 0 9994 2 41340 30.9913 111.5367 0002021 83.5639 276.5244 15.61617061554134 Lapan A3 1 41603U 16040E 26062.88665822 .00005327 00000-0 17280-3 0 9994 2 41603 97.1473 62.5604 0011708 41.7736 318.4398 15.32316244538682 CAS-2T 1 41847U 16066G 26062.74981828 .00001890 00000-0 27184-3 0 9999 2 41847 98.3898 139.6652 0343777 89.4440 274.6126 14.44447987489576 TechnoSat 1 42829U 17042E 26062.50792049 .00005474 00000-0 39639-3 0 9994 2 42829 97.4142 224.3165 0019632 95.0585 265.2883 15.04219781470812 AO-91 1 43017U 17073E 26062.76684852 .00014063 00000-0 63746-3 0 9998 2 43017 97.4872 292.1886 0155380 332.6956 26.6167 15.10717592449469 S-Net D 1 43186U 18014G 26062.73239906 .00008439 00000-0 44814-3 0 9999 2 43186 97.5448 328.2209 0009486 33.9443 326.2394 15.15532171442785 S-Net B 1 43187U 18014H 26062.67582185 .00008646 00000-0 45932-3 0 9995 2 43187 97.5455 328.1481 0009952 29.1842 330.9945 15.15502968442777 S-Net A 1 43188U 18014J 26062.73177233 .00008387 00000-0 44524-3 0 9995 2 43188 97.5465 328.3934 0009903 30.1926 329.9875 15.15538717442787 S-Net C 1 43189U 18014K 26062.67913857 .00008708 00000-0 46261-3 0 9996 2 43189 97.5478 328.3992 0011067 21.8475 338.3227 15.15495189441325 Ten-Koh 1 43677U 18084G 26062.58135736 .00003991 00000-0 30581-3 0 9994 2 43677 98.0788 250.5123 0011487 110.5752 249.6704 15.02415367400302 PO-101 1 43678U 18084H 26062.85173122 .00001954 00000-0 16256-3 0 9996 2 43678 98.1031 254.6490 0011145 145.0606 215.1350 14.99921929400428 QO-100 1 43700U 18090A 26062.80556189 .00000130 00000-0 00000 0 0 9993 2 43700 0.0190 229.8505 0002613 146.3075 101.1819 1.00270972 26620 MinXSS-2 1 43758U 18099A 26062.67393007 .00040739 00000-0 10236-2 0 9992 2 43758 97.4646 136.3835 0007426 283.5096 76.5322 15.39840032397858 AO-95 1 43770U 18099N 26062.14430379 .00013475 00000-0 55490-3 0 9991 2 43770 97.4530 122.9032 0008885 10.7969 349.3457 15.24199958397053 SNUSat 2 1 43782U 18099AA 26062.67653370 .00011929 00000-0 55550-3 0 9999 2 43782 97.4210 117.7395 0009232 309.7545 50.2876 15.20028247396996 SnugLite 1 43784U 18099AC 26062.70092177 .00016744 00000-0 68028-3 0 9991 2 43784 97.4018 118.1324 0001612 323.1605 36.9522 15.24635766397233 ITASat 1 1 43786U 18099AE 26062.64262248 .00009887 00000-0 49452-3 0 9994 2 43786 97.4180 116.2939 0012847 7.8683 352.2750 15.17555336396894 EAGLET 1 1 43790U 18099AJ 26062.66472206 .00005954 00000-0 34963-3 0 9990 2 43790 97.4384 115.1166 0011014 359.1637 0.9573 15.12035749396382 ESEO 1 43792U 18099AL 26062.66707486 .00003169 00000-0 23402-3 0 9995 2 43792 97.4106 104.5210 0011653 338.5663 21.5074 15.03876672395941 JO-97 1 43803U 18099AX 26062.60463825 .00022566 00000-0 77746-3 0 9990 2 43803 97.4266 125.2819 0004622 285.6842 74.3888 15.30022235397461 Suomi 100 1 43804U 18099AY 26062.71517607 .00017631 00000-0 69096-3 0 9997 2 43804 97.4332 123.6270 0009047 294.3473 65.6820 15.25798459397328 ISAT 1 43879U 18111D 26062.78702801 .00072771 00000-0 12788-2 0 9994 2 43879 97.5910 351.2184 0004256 2.8635 357.2640 15.50244172394766 UWE-4 1 43880U 18111E 26062.76119251 .00042354 00000-0 10754-2 0 9990 2 43880 97.5856 346.8362 0008744 2.0975 358.0305 15.39499406394520 Sparrow 1 43881U 18111F 26062.75323931 .00086207 00000-0 13321-2 0 9990 2 43881 97.6122 355.5153 0005543 46.4502 313.7210 15.53789537394903 Prox-1 1 44339U 19036A 26062.46360105 .00018148 00000-0 19063-2 0 9996 2 44339 23.9956 99.0291 0006170 245.4634 114.5222 14.87824430357699 Taurus 1 1 44530U 19059C 26062.84337237 .00013301 00000-0 21877-2 0 9998 2 44530 98.6289 221.2982 0008291 277.1423 82.8839 14.70688964343159 TO-108 1 44881U 19093C 26062.82875501 .00001596 00000-0 18686-3 0 9992 2 44881 97.7627 137.6057 0015044 75.1791 285.1090 14.86325734335760 FloripaSat 1 1 44885U 19093G 26062.85701161 .00007819 00000-0 59057-3 0 9990 2 44885 97.7926 156.4359 0012911 70.2056 290.0560 15.02605773336828 RS-44 1 44909U 19096E 26062.46207020 .00000009 00000-0 -13046-4 0 9996 2 44909 82.5190 49.9536 0218172 31.8470 329.5611 12.79747398288825 SALSAT 1 46495U 20068K 26062.77970161 .00012684 00000-0 46597-3 0 9993 2 46495 97.8847 59.5668 0008731 321.6728 38.3888 15.28039347299257 CSS (TIANHE-1) 1 48274U 21035A 26062.82771683 .00035156 00000-0 41863-3 0 9999 2 48274 41.4653 243.8214 0006655 237.2014 122.8183 15.60361861276697 CUTE 1 49263U 21088D 26062.67445642 .00052480 00000-0 51236-3 0 9996 2 49263 97.4239 154.5436 0003171 338.7428 21.3700 15.66038117245939 TeikyoSat 4 1 49396U 21102B 26062.64144767 .00003408 00000-0 21872-3 0 9990 2 49396 97.3799 96.1879 0010720 300.0782 59.9383 15.09082652236801 Z-Sat 1 49399U 21102E 26062.84953438 .00005109 00000-0 25855-3 0 9993 2 49399 97.3465 101.3598 0015330 253.4361 106.5189 15.17349040237469 KOSEN 1 1 49402U 21102H 26062.63934435 .00010458 00000-0 41839-3 0 9994 2 49402 97.3340 106.8842 0013274 214.6849 145.3524 15.25186801237921 HO-113 1 50466U 21131B 26062.88063144 .00000593 00000-0 19724-3 0 9992 2 50466 98.4969 155.8697 0005076 64.0743 296.0968 14.41241212219948 SNUGLITE 2 1 52899U 22065F 26062.38428816 .00001612 00000-0 31603-3 0 9990 2 52899 98.2017 207.5145 0007343 5.3198 354.8081 14.64108686195513 UmKA 1 (RS40S) 1 57172U 23091G 26062.71138299 .00009783 00000-0 46275-3 0 9997 2 57172 97.5191 121.8421 0014483 124.8398 235.4201 15.19488018147981 CubeBel-2 (EU11S) 1 57175U 23091K 26062.80725245 .00016761 00000-0 64293-3 0 9997 2 57175 97.5186 125.2219 0011737 124.7714 235.4631 15.26500262148219 RS-38S 1 57189U 23091Z 26062.88721306 .00024834 00000-0 79155-3 0 9997 2 57189 97.5210 130.4818 0008996 90.1928 270.0344 15.32488356148549 SONATE-2 1 59112U 24043Q 26062.33696594 .00042896 00000-0 74322-3 0 9992 2 59112 97.5388 206.9640 0007798 228.8170 131.2409 15.50754835111440 MO-122 1 60209U 24125G 26062.64448548 .00052379 00000-0 83683-3 0 9997 2 60209 97.2463 278.4275 0011263 246.9709 113.0357 15.52946905 93137 GRBBeta 1 60237U 24128C 26062.73049505 .00007928 00000-0 54340-3 0 9999 2 60237 61.9889 226.0172 0051978 113.0310 247.6276 15.05700198 90380 Curium One 1 60242U 24128H 26062.73012639 .00015457 00000-0 91090-3 0 9992 2 60242 61.9781 218.7936 0051870 109.5588 251.1118 15.10668981 90510 ROBUSTA-3A 1 60243U 24128J 26062.70469499 .00012796 00000-0 77240-3 0 9994 2 60243 61.9855 220.7953 0052350 107.3209 253.3622 15.09910931 90488 CatSat 1 60246U 24125J 26062.54835558 .00055911 00000-0 10498-2 0 9996 2 60246 97.2216 274.4482 0027652 211.1160 148.8454 15.48003820 90994 HYPERVIEW-1G (RS66S) 1 61772U 24199AP 26062.78160985 .00081707 00000-0 11214-2 0 9992 2 61772 97.3099 298.7037 0007033 312.7166 47.3497 15.57037250118185 AO-123 1 61781U 24199AY 26062.81040016 .00012466 00000-0 38110-3 0 9999 2 61781 97.3164 292.4513 0013375 333.1335 26.9214 15.33918148117760 JINJUSat 1B 1 63210U 25052A 26062.64690506 .00024589 00000-0 84944-3 0 9998 2 63210 97.4138 319.4586 0005489 94.7090 265.4777 15.29913749 53946 NUSHSAT 1 1 63211U 25052B 26062.70220051 .00028962 00000-0 94967-3 0 9995 2 63211 97.4115 319.7792 0005487 99.1056 261.0806 15.31568616 53973 TEVEL2-4 1 63213U 25052D 26062.68025924 .00026415 00000-0 89277-3 0 9995 2 63213 97.4034 319.1254 0004493 106.7690 253.4044 15.30614446 53956 TEVEL2-5 1 63214U 25052E 26062.69074817 .00026304 00000-0 89220-3 0 9997 2 63214 97.4034 319.1100 0004486 106.2473 253.9261 15.30498940 53958 TEVEL2-6 1 63215U 25052F 26062.63503006 .00026501 00000-0 90006-3 0 9992 2 63215 97.4037 319.0398 0004591 107.8577 252.3165 15.30454463 53946 TEVEL2-1 1 63217U 25052H 26062.69703151 .00025683 00000-0 88350-3 0 9992 2 63217 97.4010 318.8401 0004432 116.6791 243.4904 15.30046561 53949 TEVEL2-3 1 63218U 25052J 26062.69474646 .00025663 00000-0 88187-3 0 9993 2 63218 97.4014 318.8487 0004442 118.5086 241.6602 15.30080734 53942 TEVEL2-2 1 63219U 25052K 26062.69769975 .00025579 00000-0 87990-3 0 9993 2 63219 97.4011 318.8415 0004357 117.5703 242.5981 15.30048117 53940 TEVEL2-9 1 63237U 25052AD 26062.67942472 .00022183 00000-0 80393-3 0 9994 2 63237 97.4074 318.4032 0007444 141.7645 218.4124 15.28354901 53897 TEVEL2-7 1 63238U 25052AE 26062.63741027 .00022614 00000-0 82474-3 0 9995 2 63238 97.4078 318.3155 0007576 141.9181 218.2595 15.28142273 53886 TEVEL2-8 1 63239U 25052AF 26062.64434470 .00022928 00000-0 83670-3 0 9995 2 63239 97.4074 318.3034 0007480 142.3378 217.8387 15.28119678 53883 HYDRA-W 1 63490U 25052BL 26062.68179758 .00218351 00000-0 25947-2 0 9992 2 63490 97.3953 323.5783 0008835 117.1110 243.1049 15.60392083 54253 HADES-ICM (SO-125) 1 63492U 25052BN 26062.65216698 .00157932 00000-0 23190-2 0 9991 2 63492 97.3970 322.8879 0008396 122.9792 237.2270 15.54914942 54206 RSP-03 1 65732U 98067XL 26047.27951905 .10199253 12460-4 79249-3 0 9991 2 65732 51.6061 154.7117 0006246 319.9198 40.1367 16.39378610 23558 BOTAN 1 65942U 98067XP 26062.30429370 .04760636 12041-4 14503-2 0 9999 2 65942 51.6040 82.5602 0002926 46.9281 313.1984 16.26065139 22592 CEVROSAT1 1 66309U 25248S 26061.98715730 .00005218 00000-0 25671-3 0 9990 2 66309 45.4055 330.6604 0002970 187.7071 172.3770 15.19166843 18358 SPIRONE 1 66657U 25274H 26062.78647708 .00003620 00000-0 35295-3 0 9991 2 66657 97.7440 353.6541 0012643 12.2112 347.9411 14.93023778 14496 K-HERO 1 66660U 25274L 26062.68774898 .00004305 00000-0 41367-3 0 9993 2 66660 97.7447 353.6375 0014634 16.8311 343.3391 14.93484423 14489 SNUGLITE-III DURI 1 66661U 25274M 26062.81394522 .00003790 00000-0 36392-3 0 9990 2 66661 97.7444 353.7762 0015212 16.8754 343.2969 14.93574998 14502 SilverSat 1 66909U 98067XV 26062.34799073 .00179133 00000-0 14568-2 0 9998 2 66909 51.6247 97.2997 0005411 39.2869 320.8520 15.69574615 14192 SAKHACUBE-CHOLBON 1 67290U 25313AU 26062.70326516 .00014617 00000-0 62819-3 0 9992 2 67290 97.4019 139.1821 0009612 15.6074 344.5457 15.22725324 9916 QMR-KWT 1 67291U 25313AV 26062.75914112 .00020232 00000-0 85454-3 0 9993 2 67291 97.4019 139.2598 0009222 14.0182 346.1309 15.23248473 9920 IO-86 1 40931U 25360.30710720 .00000000 00000-0 12800-3 0 00 2 40931 6.0006 332.5373 0012733 338.8432 8.1437 14.79075515 01